GAOFEN 1-04

Satellite information

Favourite Embed

Satellite Type and Status

PAYLOADIN ORBIT

Key statistics

Satellite GAOFEN 1-04 at a glance.

Uptime

2815

Days in orbit

Revolutions

≈ 14.8

Per day

Orbit

SSO

Sun Synchronous Orbit

Inclination

98.1

Latest

Satellite identification and parameters

Extended collection of information and parameters for GAOFEN 1-04.

Object identification

Identified? True

Debris? False

Object name: GAOFEN 1-04

International designator: 2018-031D

Object number (NORAD): 43262

Object ID (CCSDS): 43262

Country: PEOPLES REPUBLIC OF CHINA (PRC)

Current information (Y/N): Y

RCS size: LARGE

Orbital parameters

Period: 97.531 minutes

Inclination: 98.0805 deg

SMA: 7018.685 km

Apoapsis: 641.322 km

Periapsis: 639.778 km

RAAN: 44.1749 deg

Eccentricy: 0.00011003

Argument of periapsis: 58.9336 deg

Mean anomaly: 301.1981 deg

Mean motion: 14.76451296 rev/day

Mean motion (dot): 0.00002367 rev/day2

B* drag term: 0.00034756002 1/REarth

Two-line elements (TLE)

Creation date: Dec. 12, 2025, 10:14 a.m.

Reference frame: TEME

Reference center: EARTH

Epoch: Dec. 12, 2025, 8:09 a.m. UTC

TLE line 0: 0 GAOFEN 1-04

TLE line 1: 1 43262U 18031D 25346.33991148 .00002367 00000-0 34756-3 0 9994

TLE line 2: 2 43262 98.0805 44.1749 0001100 58.9336 301.1981 14.76451296415114

Live tracking on map

Real-time ground track for satellite GAOFEN 1-04.

In-orbit conjunctions

There are no conjunctions computed for GAOFEN 1-04, at the moment. Check back to stay up to date, as we update our databases every day.

Go to all conjunctions

Associated space launch

Gaofen is a series of Chinese civilian Earth observation satellites. These three satellites are to be operated together with the Gaofen-1 satellite, which was launched in 2013.

GAOFEN 1-04 was lifted into orbit during the mission ‘Long March 4C | Gaofen 1-02, 1-03 & 1-04’, on board a Long March 4C space rocket.

The launch took place on March 31, 2018, 3:22 a.m. from Launch Complex 9.

For more information about the launch, click the button.

Launch to space Long March 4C | Gaofen 1-02, 1-03 & 1-04
Long March 4C | Gaofen 1-02, 1-03 & 1-04

Agency: N/A

Status: Launch Successful

Launch date: March 31, 2018, 3:22 a.m. UTC

Rocket: Long March 4C

Launch pad: Launch Complex 9

Location: Taiyuan Satellite Launch Center, People's Republic of China

...

Latest news about this satellite

There are no fresh news available about this satellite. Check back as we update our databases every day.


Newsletter sign-up

Weekly statistics, charts and insights to help you stay on top of the space industry.